Cheyenne, WY

10:57 AM MDT on May 24, 2017 (GMT -0600)
Cheyenne

Weather History for KCYS - November, 2012

Change the Weather History Date:

Thursday, November 1, 2012

  Actual Average Record
Temperature  
Mean Temperature 50 °F 41 °F  
Max Temperature 64 °F 53 °F 72 °F (2008)
Min Temperature 36 °F 29 °F -5 °F (1951)
Degree Days  
Heating Degree Days 15 24  
Month to date heating degree days 15 24  
Since 1 July heating degree days 817 883  
Cooling Degree Days 0 0  
Month to date cooling degree days 0 0  
Year to date cooling degree days 568 348  
Moisture  
Dew Point 26 °F    
Average Humidity 46    
Maximum Humidity 75    
Minimum Humidity 17    
Precipitation  
Precipitation 0.00 in 0.02 in 0.56 in (2011)
Month to date precipitation 0.00 0.02  
Year to date precipitation 9.56 14.88  
Snow  
Snow 0.00 in 0.20 in 7.70 in (2011)
Month to date snowfall 0.2  
Since 1 July snowfall 10.2 6.5  
Snow Depth 0.00 in    
Sea Level Pressure  
Sea Level Pressure 29.93 in    
Wind  
Wind Speed 8 mph (West)    
Max Wind Speed 22 mph    
Max Gust Speed 25 mph    
Visibility 10 miles    
Events      
T = Trace of Precipitation, MM = Missing Value Source: NWS Daily Summary

Daily Weather History Graph

Daily Weather History Graph

Search for Another Location

Airport or City:

Trip Planner

Search our weather history database for the weather conditions in past years. The results will help you decide how hot, cold, wet, or windy it might be!

Date:

Astronomy

Nov. 01, 2012 Rise Set
Actual Time 7:30 AM MDT 5:54 PM MDT
Civil Twilight 7:02 AM MDT 6:22 PM MDT
Nautical Twilight 6:29 AM MDT 6:55 PM MDT
Astronomical Twilight 5:57 AM MDT 7:27 PM MDT
Moon 7:52 PM MDT (11/1) 10:06 AM MDT (11/1)
Length of Visible Light 11h 20m
Length of Day
10h 23m
Waning Gibbous, 92% of the Moon is Illuminated
Nov 1
Waning Gibbous
Nov 6
Last Quarter
Nov 13
New
Nov 20
First Quarter
Nov 28
Full

Hourly Weather History & Observations

Time (MDT) Temp. Windchill Dew Point Humidity Pressure Visibility Wind Dir Wind Speed Gust Speed Precip Events Conditions
12:53 AM 37.0 °F 30.4 °F 28.0 °F 70% 30.04 in 10.0 mi West 9.2 mph - N/A   Clear
1:53 AM 39.9 °F 35.1 °F 28.0 °F 63% 30.02 in 10.0 mi WNW 6.9 mph - N/A   Clear
2:53 AM 37.9 °F 32.7 °F 28.0 °F 68% 30.00 in 10.0 mi West 6.9 mph - N/A   Clear
3:53 AM 37.9 °F 34.4 °F 27.0 °F 65% 29.98 in 10.0 mi West 4.6 mph - N/A   Clear
4:53 AM 35.6 °F 29.2 °F 28.4 °F 75% 30.10 in 10.0 mi West 8.1 mph - N/A   Clear
5:53 AM 37.0 °F 33.3 °F 26.1 °F 65% 29.99 in 10.0 mi WSW 4.6 mph - N/A   Clear
6:53 AM 39.9 °F 35.1 °F 27.0 °F 60% 29.99 in 10.0 mi West 6.9 mph - 0.00 in   Clear
7:53 AM 39.0 °F 33.4 °F 27.0 °F 62% 30.02 in 10.0 mi West 8.1 mph - 0.00 in   Clear
8:53 AM 43.0 °F 37.2 °F 28.0 °F 56% 30.01 in 10.0 mi West 10.4 mph - N/A   Clear
9:53 AM 52.0 °F - 30.0 °F 43% 29.98 in 10.0 mi West 9.2 mph - 0.00 in   Clear
10:53 AM 57.9 °F - 28.9 °F 33% 29.96 in 10.0 mi WNW 8.1 mph - N/A   Clear
11:53 AM 61.0 °F - 21.0 °F 21% 29.92 in 10.0 mi West 10.4 mph - N/A   Clear
12:53 PM 62.1 °F - 21.0 °F 21% 29.89 in 10.0 mi West 8.1 mph - N/A   Clear
1:53 PM 62.1 °F - 18.0 °F 18% 29.87 in 10.0 mi West 16.1 mph 21.9 mph N/A   Clear
2:53 PM 62.1 °F - 19.0 °F 19% 29.86 in 10.0 mi West 8.1 mph - N/A   Clear
3:53 PM 61.0 °F - 19.0 °F 20% 29.86 in 10.0 mi SW 4.6 mph - N/A   Clear
4:53 PM 57.9 °F - 21.0 °F 24% 29.88 in 10.0 mi SW 4.6 mph - N/A   Clear
5:53 PM 53.1 °F - 34.0 °F 48% 29.90 in 10.0 mi South 8.1 mph - N/A   Clear
6:53 PM 50.0 °F - 34.0 °F 54% 29.91 in 10.0 mi SW 6.9 mph - N/A   Clear
7:53 PM 53.1 °F - 28.0 °F 38% 29.91 in 10.0 mi WSW 8.1 mph - N/A   Clear
8:53 PM 51.1 °F - 26.1 °F 38% 29.89 in 10.0 mi Calm Calm - N/A   Clear
9:53 PM 48.9 °F - 26.1 °F 41% 29.85 in 10.0 mi WSW 9.2 mph - N/A   Clear
10:53 PM 46.9 °F - 21.9 °F 37% 29.84 in 10.0 mi WNW 10.4 mph - N/A   Clear
11:53 PM 46.0 °F 40.2 °F 21.9 °F 39% 29.83 in 10.0 mi West 12.7 mph - N/A   Mostly Cloudy